Total_Precipitation_Accumulation
1.59 1.42 1.21 1.11 1.03 0.91 0.89 0.90 0.83 0.78 0.72 0.68 0.64 0.54 0.49 0.43 0.40 0.38 0.35 0.36 0.48 0.72 0.93 1.12 1.17 1.10 1.09 1.05 0.89 0.83 0.80 0.80 0.80 0.79 0.76 0.72 0.71 0.70 0.70 0.71 0.71 0.72 0.73
1.81 1.71 1.55 1.37 1.25 1.12 1.00 0.96 0.87 0.83 0.80 0.75 0.69 0.61 0.58 0.51 0.46 0.42 0.35 0.31 0.37 0.50 0.78 1.08 1.35 1.45 1.44 1.41 1.23 1.12 1.02 0.94 0.92 0.89 0.86 0.83 0.79 0.78 0.78 0.79 0.77 0.79 0.84
1.96 1.94 1.79 1.62 1.39 1.34 1.30 1.23 1.08 0.96 0.90 0.83 0.76 0.71 0.68 0.61 0.54 0.51 0.46 0.39 0.36 0.39 0.57 0.85 1.18 1.38 1.47 1.58 1.52 1.39 1.24 1.10 1.02 0.97 0.93 0.92 0.89 0.85 0.86 0.88 0.90 0.92 0.94
2.02 2.09 1.95 1.82 1.71 1.53 1.45 1.41 1.29 1.14 1.04 0.98 0.89 0.84 0.83 0.76 0.64 0.55 0.50 0.49 0.47 0.42 0.45 0.65 0.87 1.06 1.22 1.38 1.54 1.59 1.53 1.33 1.15 1.04 0.99 0.97 0.98 0.99 1.00 1.01 1.00 1.01 1.02
2.28 2.17 2.02 1.90 1.94 1.85 1.61 1.52 1.44 1.27 1.13 1.03 0.96 0.93 0.89 0.85 0.79 0.72 0.61 0.51 0.46 0.46 0.47 0.56 0.68 0.75 0.88 1.04 1.31 1.55 1.60 1.54 1.36 1.19 1.09 1.04 1.03 1.07 1.14 1.19 1.18 1.14 1.13
2.51 2.48 2.26 2.17 2.13 2.10 1.89 1.67 1.53 1.40 1.23 1.19 1.12 1.04 1.00 0.99 0.90 0.83 0.78 0.69 0.58 0.48 0.47 0.51 0.59 0.61 0.66 0.79 0.97 1.23 1.42 1.50 1.48 1.42 1.32 1.28 1.25 1.26 1.32 1.36 1.37 1.37 1.39
2.58 2.64 2.53 2.46 2.35 2.16 2.03 1.90 1.74 1.57 1.41 1.38 1.37 1.20 1.07 1.04 1.01 0.91 0.86 0.78 0.71 0.64 0.60 0.57 0.60 0.62 0.61 0.68 0.76 0.89 1.05 1.21 1.35 1.44 1.43 1.41 1.43 1.45 1.46 1.51 1.53 1.55 1.61
2.73 2.68 2.58 2.59 2.59 2.39 2.20 2.05 1.98 1.79 1.58 1.53 1.53 1.52 1.31 1.16 1.03 0.91 0.86 0.80 0.74 0.72 0.73 0.73 0.72 0.71 0.68 0.65 0.66 0.72 0.79 0.99 1.27 1.55 1.64 1.62 1.66 1.67 1.69 1.74 1.81 1.86 1.91
2.90 2.69 2.61 2.61 2.64 2.61 2.50 2.37 2.29 2.11 1.90 1.76 1.64 1.74 1.57 1.24 1.00 0.93 0.89 0.83 0.79 0.76 0.77 0.80 0.81 0.80 0.76 0.70 0.68 0.71 0.78 0.89 1.21 1.59 1.82 1.91 1.95 1.96 2.05 2.12 2.20 2.27 2.25
3.01 2.86 2.75 2.66 2.62 2.60 2.55 2.55 2.53 2.43 2.27 2.10 1.92 1.70 1.53 1.31 1.18 1.03 0.91 0.87 0.87 0.84 0.84 0.85 0.86 0.87 0.86 0.80 0.79 0.84 0.90 0.98 1.18 1.57 1.95 2.20 2.38 2.51 2.59 2.67 2.72 2.74 2.64
3.04 2.88 2.74 2.68 2.58 2.53 2.53 2.54 2.52 2.54 2.41 2.23 2.05 1.89 1.72 1.46 1.25 1.18 1.00 0.86 0.84 0.80 0.81 0.82 0.81 0.79 0.82 0.83 0.86 0.99 1.10 1.14 1.30 1.60 2.06 2.48 2.76 3.06 3.26 3.33 3.33 3.26 3.15
2.92 2.81 2.71 2.58 2.49 2.50 2.49 2.53 2.51 2.53 2.52 2.32 2.12 1.93 1.82 1.66 1.44 1.33 1.22 1.03 0.97 0.87 0.81 0.81 0.84 0.87 0.88 0.90 0.95 1.13 1.19 1.26 1.42 1.70 2.13 2.50 2.77 3.06 3.30 3.55 3.63 3.55 3.46
2.76 2.52 2.48 2.47 2.38 2.33 2.44 2.55 2.54 2.42 2.41 2.36 2.25 2.07 1.91 1.70 1.54 1.54 1.54 1.41 1.25 1.06 0.98 0.95 0.91 0.95 1.02 1.07 1.10 1.25 1.22 1.28 1.38 1.55 1.89 2.23 2.39 2.53 2.74 3.13 3.47 3.58 3.50
2.78 2.56 2.42 2.44 2.46 2.37 2.35 2.44 2.46 2.34 2.28 2.25 2.20 2.13 2.05 1.86 1.72 1.68 1.72 1.83 1.79 1.51 1.30 1.17 1.11 1.14 1.18 1.21 1.29 1.38 1.24 1.38 1.40 1.44 1.60 1.82 1.89 1.91 1.99 2.21 2.57 2.86 3.07
2.63 2.57 2.48 2.41 2.39 2.42 2.41 2.41 2.38 2.25 2.18 2.16 2.08 2.03 1.96 1.84 1.80 1.78 1.83 1.97 2.18 2.05 1.66 1.33 1.28 1.30 1.32 1.31 1.36 1.22 1.09 1.27 1.33 1.32 1.36 1.44 1.46 1.43 1.45 1.59 1.76 1.92 2.11
2.25 2.36 2.39 2.30 2.25 2.23 2.25 2.32 2.31 2.21 2.11 2.04 2.00 1.98 1.92 1.79 1.76 1.78 1.81 1.86 1.99 2.11 1.90 1.40 1.21 1.19 1.24 1.24 1.29 1.08 0.99 1.18 1.13 1.12 1.18 1.24 1.26 1.22 1.23 1.31 1.40 1.46 1.49
2.00 2.06 2.11 2.11 2.08 2.06 2.04 2.08 2.08 2.04 2.02 1.92 1.87 1.88 1.83 1.73 1.71 1.69 1.70 1.74 1.76 1.80 1.78 1.37 1.10 1.04 1.10 1.11 1.09 0.97 0.89 0.89 0.87 1.00 0.99 1.03 1.07 1.09 1.12 1.17 1.22 1.28 1.32
1.73 1.83 1.86 1.88 1.87 1.85 1.81 1.81 1.80 1.75 1.77 1.73 1.67 1.69 1.67 1.65 1.63 1.58 1.60 1.58 1.54 1.50 1.51 1.37 1.11 0.99 0.94 0.90 0.86 0.81 0.76 0.75 0.72 0.85 0.86 0.86 0.91 0.95 0.99 1.01 1.08 1.12 1.16
1.48 1.59 1.68 1.69 1.70 1.68 1.61 1.55 1.53 1.50 1.44 1.43 1.42 1.46 1.46 1.54 1.62 1.58 1.54 1.46 1.37 1.34 1.34 1.31 1.11 0.94 0.87 0.83 0.83 0.78 0.70 0.67 0.63 0.70 0.74 0.73 0.77 0.84 0.91 0.96 0.97 0.99 0.98
1.42 1.43 1.49 1.53 1.56 1.58 1.58 1.50 1.46 1.47 1.42 1.35 1.32 1.39 1.42 1.45 1.49 1.49 1.47 1.41 1.37 1.39 1.35 1.36 1.26 1.09 0.99 0.91 0.92 0.88 0.80 0.71 0.66 0.63 0.72 0.74 0.77 0.81 0.83 0.85 0.82 0.78 0.78
1.48 1.42 1.43 1.47 1.51 1.57 1.60 1.62 1.61 1.62 1.64 1.63 1.53 1.47 1.46 1.52 1.52 1.51 1.47 1.41 1.39 1.45 1.48 1.48 1.39 1.21 1.07 1.01 0.99 0.89 0.88 0.84 0.79 0.72 0.73 0.70 0.70 0.68 0.68 0.74 0.80 0.81 0.78
1.61 1.51 1.52 1.52 1.55 1.61 1.85 1.86 1.75 1.69 1.72 1.68 1.60 1.47 1.39 1.43 1.39 1.45 1.47 1.45 1.48 1.55 1.62 1.60 1.43 1.19 0.94 0.87 0.91 0.99 1.06 1.17 1.10 0.78 0.73 0.71 0.67 0.71 0.66 0.65 0.76 0.81 0.85
1.68 1.67 1.66 1.70 1.72 1.76 1.89 1.77 1.76 1.62 1.58 1.50 1.43 1.38 1.31 1.27 1.31 1.22 1.33 1.46 1.52 1.59 1.55 1.43 1.28 1.02 0.87 0.81 1.00 1.24 1.22 1.18 0.96 0.73 0.82 0.87 0.74 0.72 0.67 0.70 0.85 0.81 0.83
1.85 1.83 1.82 1.84 1.81 1.81 1.81 1.66 1.62 1.46 1.41 1.35 1.27 1.23 1.20 1.18 1.18 1.20 1.27 1.36 1.25 1.21 1.18 1.09 1.03 0.96 0.91 0.91 1.10 1.32 1.36 1.32 1.09 0.92 0.95 1.08 0.86 0.77 0.67 0.69 0.82 0.83 0.84
1.99 1.94 1.85 1.74 1.64 1.59 1.59 1.48 1.44 1.30 1.28 1.22 1.14 1.11 1.13 1.09 1.22 1.41 1.41 1.34 1.16 1.06 1.11 1.15 1.15 1.12 1.16 1.19 1.22 1.41 1.58 1.69 1.48 1.10 0.95 1.04 0.90 0.83 0.80 0.75 0.76 0.84 0.84
1.80 1.75 1.69 1.58 1.44 1.31 1.35 1.34 1.33 1.19 1.18 1.10 1.05 1.02 1.12 1.11 1.30 1.45 1.31 1.25 1.16 1.04 1.03 1.04 1.03 1.02 0.98 1.03 1.22 1.30 1.61 2.00 1.76 1.35 0.91 1.03 1.01 1.08 1.27 0.90 0.76 0.80 0.85